Tracking 20721 objects as of 31-May-2020
HD Live streaming from Space Station
objects crossing your sky now
Track the CREW DRAGON and SPACE STATION

FENGYUN 1C DEB


FENGYUN 1C DEB is no longer on orbit


NORAD ID: 35100
Int'l Code: 1999-025DKC
Perigee: N/A
Apogee: N/A
Inclination: N/A
Period: N/A
Semi major axis: N/A
RCS: N/A
Launch date: May 10, 1999
Source: People's Republic of China (PRC)
Launch site: Taiyaun Space Center, China (TSC)
Decay date: 2014-11-23

Note: This is SATELLITE DEBRIS
aabbcc
Your satellite tracking list
Your tracking list is empty




NASA's NSSDC Master Catalog

Two Line Element Set (TLE):
1 35100U 99025DKC 14309.66446855  .00864207  00000-0  19235-1 0  9993
2 35100 097.8407 104.3224 0038337 299.5699 060.1727 15.40547021370760
Source of the keplerian elements: AFSPC